User: anonymous   Login
Location: Unspecified
(0.0000°N, 0.0000°E)
Time: 11:29:15
(UTC+01:00)
Language:

Helios 1A Rocket - Orbit

View from above orbital plane
View from above orbital plane
View from above satellite
View from above satellite

Ground track
Ground track

The orbit data is extracted from the following two-line orbital elements,

1 23608U 95033D   18020.92996858 +.00000866 +00000-0 +81738-4 0  9997
2 23608 098.2441 329.3370 0015266 254.3411 105.6125 14.96556533220018
Epoch (UTC): 20 January 2018 22:19:09
Eccentricity: 0.0015266
inclination: 98.2441°
perigee height: 567 km
apogee height: 588 km
right ascension of ascending node: 329.3370°
argument of perigee: 254.3411°
revolutions per day: 14.96556533
mean anomaly at epoch: 105.6125°
orbit number at epoch: 22001

The dashed part of the orbit path shows where the satellite is in the earth's shadow,  

DLR